User: anonymous   Login
Location: Caltech
(34.1382°N, 118.1253°W)
Time: 16:19:43
(UTC-08:00)
Language:

Iridium 14 - Orbit

View from above orbital plane
View from above orbital plane
View from above satellite
View from above satellite

Ground track
Ground track

The orbit data is extracted from the following two-line orbital elements,

1 25777U 99032A   18020.40932892  .00000182  00000-0  57869-4 0  9999
2 25777  86.3991 133.2091 0002119  93.5691 266.5747 14.34215481985812
Epoch (UTC): 20 January 2018 09:49:26
Eccentricity: 0.0002119
inclination: 86.3991°
perigee height: 776 km
apogee height: 779 km
right ascension of ascending node: 133.2091°
argument of perigee: 93.5691°
revolutions per day: 14.34215481
mean anomaly at epoch: 266.5747°
orbit number at epoch: 98581

The dashed part of the orbit path shows where the satellite is in the earth's shadow,  

DLR